Weather History for Burley, ID

Change the Weather History Date:

Wednesday, August 21, 2013

  Actual Average Record
Temperature  
Mean Temperature 75 °F 67 °F  
Max Temperature 86 °F 84 °F 98 °F (2009)
Min Temperature 63 °F 51 °F 38 °F (1948)
Degree Days  
Heating Degree Days 0 1  
Month to date heating degree days 0 14  
Since 1 June heating degree days 101 170  
Since 1 July heating degree days 0 36  
Cooling Degree Days 10 4  
Month to date cooling degree days 143 105  
Year to date cooling degree days 517 318  
Since 1 June cooling degree days 507 312  
Growing Degree Days 24 (Base 50)    
Moisture  
Dew Point 55 °F    
Average Humidity 57    
Maximum Humidity 81    
Minimum Humidity 32    
Precipitation  
Precipitation T in 0.01 in 0.66 in (2003)
Month to date precipitation T 0.25  
Year to date precipitation 2.33 6.61  
Sea Level Pressure  
Sea Level Pressure 29.94 in    
Wind  
Wind Speed 3 mph (East)    
Max Wind Speed 10 mph    
Max Gust Speed 14 mph    
Visibility 10 miles    
Events      
T = Trace of Precipitation, MM = Missing Value Source: NWS Daily Summary

Daily Weather History Graph

Daily Weather History Graph

Search for Another Location

Airport:

Trip Planner

Search our weather history database for the weather conditions in past years. The results will help you decide how hot, cold, wet, or windy it might be!

Date:

Astronomy

Aug. 21, 2013 Rise Set
Actual Time 6:48 AM MDT 8:26 PM MDT
Civil Twilight 6:18 AM MDT 8:56 PM MDT
Nautical Twilight 5:42 AM MDT 9:32 PM MDT
Astronomical Twilight 5:03 AM MDT 10:10 PM MDT
Moon 8:34 PM MDT 7:35 AM MDT
Length of Visible Light 14h 37m
Length of Day
13h 38m
Full, 99% of the Moon is Illuminated
Aug 21
Full
Aug 28
Last Quarter
Sep 5
New
Sep 12
First Quarter
Sep 19
Full

Hourly Weather History & Observations

Time (MDT) Temp. Heat Index Dew Point Humidity Pressure Visibility Wind Dir Wind Speed Gust Speed Precip Events Conditions
12:53 AM 68.0 °F - 54.0 °F 61% 29.89 in 10.0 mi SW 5.8 mph - N/A   Clear
1:53 AM 69.1 °F - 53.1 °F 57% 29.90 in 10.0 mi WNW 4.6 mph - N/A   Clear
2:53 AM 66.0 °F - 53.1 °F 63% 29.91 in 10.0 mi North 3.5 mph - N/A   Mostly Cloudy
3:53 AM 64.9 °F - 54.0 °F 68% 29.92 in 10.0 mi East 4.6 mph - N/A   Scattered Clouds
4:53 AM 64.0 °F - 55.0 °F 73% 29.94 in 10.0 mi SSE 4.6 mph - N/A   Mostly Cloudy
5:53 AM 64.0 °F - 55.9 °F 75% 29.95 in 10.0 mi Calm Calm - N/A   Mostly Cloudy
6:53 AM 64.9 °F - 55.0 °F 70% 29.95 in 10.0 mi Calm Calm - 0.00 in   Overcast
7:53 AM 64.9 °F - 57.0 °F 75% 29.99 in 10.0 mi NW 3.5 mph - N/A   Mostly Cloudy
8:53 AM 69.1 °F - 57.0 °F 65% 30.00 in 10.0 mi East 3.5 mph - N/A   Clear
9:53 AM 71.1 °F - 57.0 °F 61% 29.99 in 10.0 mi Calm Calm - N/A   Partly Cloudy
10:53 AM 75.9 °F - 55.0 °F 48% 29.99 in 10.0 mi Calm Calm - N/A   Partly Cloudy
11:53 AM 77.0 °F - 54.0 °F 45% 29.99 in 10.0 mi Calm Calm - N/A   Partly Cloudy
12:53 PM 79.0 °F - 54.0 °F 42% 29.98 in 10.0 mi WNW 5.8 mph - N/A   Clear
1:53 PM 80.1 °F 79.9 °F 53.1 °F 39% 29.97 in 10.0 mi WSW 5.8 mph - N/A   Clear
2:53 PM 82.0 °F - 51.1 °F 34% 29.95 in 10.0 mi Calm Calm - N/A   Clear
3:53 PM 84.9 °F - 52.0 °F 32% 29.93 in 10.0 mi Variable 5.8 mph - N/A   Clear
4:53 PM 80.1 °F 79.9 °F 53.1 °F 39% 29.94 in 10.0 mi NNE 5.8 mph - N/A   Clear
5:53 PM 84.0 °F - 52.0 °F 33% 29.91 in 10.0 mi NE 4.6 mph - N/A   Clear
6:53 PM 82.0 °F - 52.0 °F 35% 29.89 in 10.0 mi SE 3.5 mph - N/A   Clear
7:53 PM 75.9 °F - 55.9 °F 50% 29.91 in 10.0 mi ESE 3.5 mph - N/A   Clear
8:53 PM 69.1 °F - 57.9 °F 68% 29.92 in 9.0 mi Calm Calm - 0.00 in   Clear
9:53 PM 68.0 °F - 57.0 °F 68% 29.95 in 10.0 mi Calm Calm - N/A   Clear
10:53 PM 66.0 °F - 61.0 °F 84% 29.95 in 10.0 mi SSW 3.5 mph - N/A   Clear
11:53 PM 66.9 °F - 55.0 °F 66% 29.94 in 10.0 mi Calm Calm - N/A   Clear